User: anonymous   Login
Location: Unspecified
(0.0000°N, 0.0000°E)
Time: 18:25:25
(UTC+00:00)
Language:

Meteor 2-17 - Orbit

View from above orbital plane
View from above orbital plane
View from above satellite
View from above satellite

Ground track
Ground track

The orbit data is extracted from the following two-line orbital elements,

1 18820U 88005A   18174.83536066  .00000073  00000-0  51232-4 0  9995
2 18820  82.5427 125.8618 0016706   4.9804  23.7222 13.85409823536774
Epoch (UTC): 23 June 2018 20:02:55
Eccentricity: 0.0016706
inclination: 82.5427°
perigee height: 932 km
apogee height: 957 km
right ascension of ascending node: 125.8618°
argument of perigee: 4.9804°
revolutions per day: 13.85409823
mean anomaly at epoch: 23.7222°
orbit number at epoch: 53677

The dashed part of the orbit path shows where the satellite is in the earth's shadow,  

DLR